Temp
85 84 88 87 87 65 73 78 70 75 82 78 64 67 71 68 62 58 71 69 70 79 77 84 85 86 86 87 87 87 85 88 88 88 89 89 90 89 88 88 88 86 87 88 89 88 87 87 86 86 85 85 84 83 82 82 82 82 82 82 82 82 82
86 89 89 88 88 87 75 71 76 83 84 81 67 56 60 58 52 58 69 63 61 68 57 79 82 82 84 84 86 89 85 87 86 88 88 88 89 89 88 88 88 87 87 87 90 89 88 87 87 87 85 86 85 84 84 82 82 81 82 82 82 82 81
85 90 88 84 88 91 81 74 87 75 61 64 65 66 52 52 52 53 60 65 65 63 63 76 75 80 81 83 84 88 84 86 86 87 89 88 90 89 89 89 87 86 86 87 89 89 90 88 87 87 86 86 85 85 85 84 83 83 83 84 83 83 83
85 85 82 68 75 84 88 87 80 83 74 65 63 65 64 59 51 56 58 63 55 70 70 79 78 79 81 84 84 87 85 86 87 88 89 88 88 88 89 90 89 88 89 89 90 90 90 88 87 87 88 88 87 86 84 84 85 84 83 83 83 82 83
84 72 77 73 73 71 74 75 73 75 74 77 75 72 68 57 53 50 51 51 62 66 75 81 79 83 84 85 83 85 86 87 88 89 90 88 89 89 90 90 90 89 89 90 91 91 91 89 88 89 89 88 88 87 85 85 84 83 83 83 83 82 83
73 75 82 83 81 80 77 75 72 73 68 63 59 56 74 72 63 49 53 53 61 73 91 79 81 85 87 87 85 85 87 89 88 90 91 90 90 90 90 91 91 90 89 90 91 91 90 89 89 89 89 89 89 88 87 86 86 85 84 83 83 83 83
71 80 85 89 88 86 83 80 75 79 74 69 60 46 56 70 70 75 62 57 56 71 78 81 79 86 87 86 86 85 88 91 88 89 92 91 91 90 91 91 93 92 89 90 90 89 89 88 88 88 88 89 89 89 88 87 86 85 86 85 84 84 83
79 84 88 87 88 86 81 80 82 78 73 75 70 63 61 60 64 60 59 56 63 76 76 79 82 82 90 89 88 86 89 91 91 87 92 90 89 89 91 93 93 91 90 89 88 87 87 87 86 87 88 89 89 89 89 89 87 87 87 86 85 84 83
59 69 73 78 84 84 78 74 78 80 80 79 78 75 68 65 66 66 56 52 57 73 84 75 80 82 87 86 88 88 87 86 92 85 88 88 88 88 89 89 89 88 89 87 86 86 86 86 87 87 87 88 89 89 90 89 89 89 88 87 86 85 84
49 49 52 53 63 72 77 79 79 80 79 76 72 66 61 50 59 65 57 56 61 73 84 85 85 82 82 88 89 91 89 87 91 84 87 87 87 84 86 87 86 86 87 87 85 85 86 87 87 86 86 88 89 89 90 91 90 89 88 89 88 86 85
57 61 59 73 75 75 71 75 78 78 81 81 77 67 60 53 51 62 60 61 64 71 81 80 79 77 81 82 83 81 85 84 86 79 86 87 85 84 86 87 87 84 82 84 85 85 86 87 87 86 87 88 89 88 89 91 91 90 89 88 87 86 85
68 72 72 79 79 75 76 75 75 79 78 78 76 68 65 64 61 45 58 63 70 70 72 73 74 79 76 77 79 79 78 79 81 81 84 87 87 87 87 87 84 81 82 83 83 83 85 86 87 87 88 89 88 88 89 90 91 91 90 88 87 86 85
74 77 77 79 79 79 78 78 77 76 78 76 72 69 73 66 61 59 60 61 65 70 76 77 77 77 76 78 85 89 82 82 80 79 82 85 86 85 85 83 83 83 82 82 82 82 83 85 86 86 87 88 88 88 90 90 91 91 90 88 87 86 85
74 76 77 78 76 77 79 79 78 79 78 77 77 75 76 74 62 66 68 63 66 72 78 78 78 78 81 81 82 84 82 84 83 83 82 85 86 86 86 85 85 84 84 83 82 82 82 84 85 86 86 86 87 88 89 90 90 91 89 87 86 86 85
72 76 78 78 77 76 74 76 79 79 79 78 78 78 77 73 73 75 73 65 65 71 77 81 79 76 79 85 88 86 81 82 85 85 87 86 86 84 82 80 83 83 84 84 83 83 83 84 85 86 86 87 88 90 90 91 90 91 90 87 86 86 85
64 75 75 76 77 76 74 74 74 77 77 73 76 73 78 73 63 65 71 66 63 67 74 82 80 78 79 78 78 82 80 82 82 84 85 85 84 84 85 84 84 84 84 83 83 83 85 85 86 86 86 87 87 88 90 90 91 91 90 88 86 86 85
58 69 75 75 75 72 67 68 74 76 75 76 78 80 80 79 80 69 60 59 66 72 75 76 78 79 76 78 79 77 77 77 81 82 84 85 87 86 85 84 84 86 86 86 85 86 87 87 86 88 88 87 86 88 88 90 91 91 90 89 87 85 85
58 69 72 74 66 56 58 73 80 78 77 76 76 76 77 81 81 72 73 69 72 73 74 77 76 82 82 80 75 78 80 77 78 81 81 82 85 88 88 88 88 87 87 87 87 87 87 88 89 90 89 88 88 89 91 90 89 89 89 88 86 86 85
56 64 66 57 51 56 70 76 80 81 82 81 77 76 77 77 80 80 75 73 72 73 72 73 74 75 78 81 81 83 80 79 80 79 82 81 81 84 86 86 88 86 86 86 86 85 87 89 89 89 88 89 89 89 89 89 89 88 89 87 85 85 85
62 58 55 48 50 67 76 77 79 81 80 79 77 75 77 76 75 71 70 72 74 75 76 77 76 76 76 79 77 76 81 82 81 81 80 81 82 82 84 84 84 85 86 86 86 86 87 88 89 89 89 90 89 88 89 89 88 88 88 86 85 84 84
52 55 54 55 63 66 71 72 74 74 69 71 69 59 64 73 74 73 69 72 75 76 76 77 76 76 79 74 73 80 83 83 85 86 85 86 84 84 82 87 88 86 86 86 88 87 87 88 88 89 90 90 89 88 88 89 88 88 87 85 84 84 84
62 53 52 53 53 50 58 70 77 82 82 80 75 64 62 71 75 76 74 72 72 73 75 75 74 72 67 64 69 79 86 86 84 85 88 90 90 87 84 81 84 86 86 88 88 88 88 87 89 90 90 89 87 86 87 88 88 87 86 84 84 84 84
61 58 50 51 50 54 61 68 77 80 80 82 78 62 55 67 72 75 75 74 73 73 74 73 73 69 63 66 70 79 84 86 89 89 89 91 91 89 88 88 84 83 86 87 88 87 87 87 88 88 88 88 87 86 86 88 88 86 85 83 83 83 83
58 58 55 51 59 56 62 73 78 80 80 83 70 53 54 64 72 75 75 73 73 73 72 73 72 68 63 66 72 82 85 86 86 83 83 83 84 84 85 87 90 85 83 85 85 86 86 86 88 88 88 88 86 85 85 86 86 85 84 83 83 84 83
56 57 56 58 60 67 71 75 79 79 81 71 57 46 58 67 72 73 74 73 73 72 71 72 67 69 72 75 79 83 83 81 80 83 85 86 84 83 85 87 84 86 83 83 85 86 87 86 88 88 88 86 84 84 84 84 84 85 84 83 83 83 82
54 53 52 52 56 65 74 76 81 80 73 54 50 62 68 71 72 73 73 72 72 72 71 69 69 72 77 77 78 77 77 77 77 78 77 78 82 85 83 81 82 86 91 83 84 87 87 87 88 88 86 84 83 83 82 83 84 84 83 83 83 82 81
60 56 52 49 44 60 76 77 73 75 61 59 66 70 73 75 72 72 71 71 71 72 69 72 71 72 73 73 73 74 74 74 74 74 75 74 75 80 81 80 81 82 80 80 83 86 86 86 85 85 85 82 81 81 82 82 83 83 83 83 82 81 80
52 51 49 47 58 66 79 75 59 64 67 69 69 71 68 72 72 70 69 69 70 71 69 68 69 69 69 69 70 70 71 72 72 73 74 73 74 77 80 79 77 77 74 74 74 76 78 81 83 85 84 81 80 81 81 81 82 82 82 82 81 80 79
55 54 58 64 71 72 76 73 71 72 74 76 75 73 72 69 69 71 68 68 70 70 70 68 67 67 68 68 69 67 68 69 69 70 71 71 71 74 73 72 73 75 74 73 73 73 73 72 74 78 82 82 79 80 80 82 81 82 81 81 80 79 78
60 66 66 71 71 73 75 78 78 76 76 76 76 73 68 68 68 69 67 68 69 69 69 67 66 66 67 67 67 67 67 67 68 69 70 69 70 71 71 71 71 72 73 73 73 72 70 70 71 72 74 79 79 79 81 81 82 81 80 79 78 77 77
53 45 61 66 70 72 73 73 75 76 76 73 72 69 68 68 70 69 70 69 69 69 69 67 66 66 67 67 66 66 66 66 67 68 68 68 69 69 68 69 69 69 69 69 69 70 70 71 73 74 74 74 78 80 80 81 81 81 79 78 77 76 76
54 54 58 62 72 71 72 71 70 71 72 72 71 70 70 70 70 70 69 70 69 69 67 67 66 65 66 66 65 66 66 66 66 66 65 65 66 68 68 68 69 69 68 68 68 69 69 70 72 73 73 73 73 76 79 80 80 79 76 77 77 76 76
55 57 59 58 64 69 70 70 70 70 71 71 71 72 71 71 69 68 69 69 68 67 67 67 66 64 64 66 66 65 65 65 65 65 65 65 65 65 66 67 67 67 67 68 69 69 69 70 72 73 73 73 74 75 75 76 77 77 77 76 77 77 76
50 51 53 56 54 55 63 67 69 69 70 70 69 69 69 68 67 67 67 67 67 67 67 66 65 63 63 64 64 64 64 64 64 64 64 64 65 66 67 68 68 68 68 68 69 68 68 69 69 69 71 71 72 74 75 76 76 75 76 77 77 76 75
49 56 58 58 59 58 60 64 68 70 71 70 68 67 67 68 68 68 67 65 64 64 65 66 65 64 64 64 64 63 63 64 65 65 64 64 64 65 66 67 67 67 68 69 67 66 66 66 68 68 70 70 71 73 73 76 76 76 77 75 75 75 75
58 59 59 60 58 57 61 64 64 65 66 68 67 68 68 68 67 68 66 66 64 63 64 65 66 65 64 65 64 62 62 63 64 65 66 66 66 66 66 67 67 66 66 68 68 66 67 67 67 68 72 75 75 75 75 76 78 77 77 76 75 75 72
56 60 61 61 62 62 63 63 64 66 66 66 63 64 65 66 67 67 65 65 66 66 64 64 66 66 64 64 64 63 63 63 63 64 65 65 67 67 67 67 67 67 68 68 68 68 69 68 69 70 73 76 78 80 79 79 78 76 76 76 75 72 71
MSLP
997.36 997.16 996.60 997.64 997.88 1005.28 1000.80 1000.92 1003.48 1001.60 998.96 1001.12 1004.16 1004.16 1003.44 1004.12 1005.36 1007.04 1002.24 1002.40 1001.04 998.52 999.04 998.00 997.76 997.96 998.08 997.84 998.04 998.36 998.96 999.04 999.36 1000.04 1000.08 1000.16 1000.20 1000.40 1000.64 1000.88 1001.12 1001.44 1001.52 1001.72 1001.88 1002.36 1002.88 1003.32 1003.68 1003.96 1004.28 1004.56 1005.16 1005.84 1006.44 1006.96 1007.28 1007.56 1007.92 1008.16 1008.48 1008.76 1009.12
996.64 995.52 995.64 996.40 996.52 997.28 999.68 1002.52 1000.32 998.04 997.24 999.00 1002.84 1007.40 1005.68 1006.92 1009.32 1007.04 1003.16 1004.72 1003.72 1002.96 1005.12 998.80 998.68 998.96 998.60 998.64 998.20 998.08 998.72 998.88 999.72 999.80 999.80 999.84 999.84 999.76 999.84 1000.08 1000.24 1000.64 1000.92 1001.20 1001.36 1001.68 1002.04 1002.48 1002.84 1003.28 1003.68 1003.92 1004.48 1005.04 1005.64 1006.36 1006.88 1007.32 1007.40 1007.64 1008.04 1008.36 1008.80
996.40 995.12 996.16 997.44 995.88 995.36 998.60 1000.08 996.52 1001.40 1005.12 1005.80 1002.76 1004.32 1008.96 1009.28 1009.32 1007.84 1004.72 1003.20 1003.12 1002.60 1002.88 1000.00 1000.28 999.64 999.36 998.68 998.16 997.88 998.84 998.92 999.16 999.20 999.08 999.00 998.92 999.24 999.64 999.88 1000.20 1000.56 1000.88 1001.00 1000.96 1001.16 1001.36 1001.76 1002.16 1002.64 1003.16 1003.68 1004.20 1004.60 1004.96 1005.40 1006.04 1006.24 1006.60 1007.04 1007.52 1007.96 1008.20
995.84 996.12 997.28 1001.76 999.72 996.88 996.28 996.80 999.16 997.68 1000.20 1003.08 1005.28 1003.88 1003.64 1004.96 1008.24 1007.80 1006.40 1004.24 1005.60 1000.44 1000.00 999.00 999.20 998.40 998.20 998.24 998.24 997.80 998.16 998.16 998.28 998.44 998.68 998.92 999.04 999.20 999.28 999.28 999.44 999.60 999.84 1000.04 1000.24 1000.68 1001.20 1001.64 1002.16 1002.52 1003.04 1003.40 1003.84 1004.12 1004.60 1005.00 1005.28 1005.72 1006.32 1006.84 1007.24 1007.72 1007.76
995.80 999.72 997.56 999.80 999.60 1001.04 1000.56 1000.68 1001.12 1000.52 1000.72 998.40 1000.08 1001.00 1002.92 1005.08 1006.72 1006.76 1006.96 1007.32 1004.00 999.80 996.68 997.44 997.88 996.88 996.76 996.84 997.60 997.12 997.24 997.24 997.24 997.48 997.76 998.16 998.32 998.44 998.36 998.36 998.64 998.96 999.20 999.48 999.68 999.80 1000.28 1000.96 1001.56 1002.08 1002.56 1003.00 1003.40 1003.76 1004.24 1004.48 1005.12 1005.52 1006.00 1006.32 1006.76 1007.12 1007.28
998.56 997.40 995.56 996.04 997.12 997.72 998.92 999.92 1000.92 1000.32 1002.28 1003.56 1004.76 1005.44 1000.52 1001.64 1004.36 1005.96 1006.08 1006.92 1002.40 997.80 994.92 995.88 996.44 995.92 995.64 995.40 996.08 996.60 996.24 996.28 996.56 996.44 996.40 996.96 997.64 997.44 997.48 997.72 997.96 998.48 998.76 999.00 999.16 999.36 999.76 1000.60 1001.28 1001.68 1001.88 1002.52 1003.08 1003.32 1003.60 1004.04 1004.48 1004.96 1005.44 1005.92 1006.20 1006.56 1006.80
998.44 995.80 994.28 993.64 994.24 995.36 996.68 997.84 999.76 998.72 999.92 1000.88 1003.36 1006.20 1003.64 1001.52 1001.40 1001.12 1002.28 1004.56 1002.76 996.20 994.56 994.44 994.84 995.08 995.08 995.20 995.28 995.96 995.56 995.28 995.72 996.04 995.80 995.88 996.08 996.56 996.88 997.16 997.44 997.76 998.28 998.64 999.08 999.44 999.60 999.84 1000.32 1000.80 1001.52 1002.04 1002.36 1002.84 1003.24 1003.56 1003.96 1004.40 1004.68 1005.20 1005.64 1006.00 1006.40
996.00 994.64 993.32 993.32 993.52 994.88 997.00 997.12 997.08 998.56 1000.40 999.84 1001.12 1001.68 1000.88 1002.20 1001.96 1003.20 1003.40 1005.08 1002.16 996.20 994.12 994.32 993.72 993.92 993.80 993.96 994.32 995.00 995.12 994.88 994.88 995.64 995.52 995.92 996.24 996.24 996.20 996.40 996.76 997.24 997.84 998.40 999.00 999.60 999.76 999.92 1000.32 1000.64 1000.76 1001.12 1001.72 1002.24 1002.52 1002.96 1003.52 1003.92 1004.40 1004.80 1005.20 1005.68 1006.04
1000.36 998.36 996.44 995.88 994.16 994.80 996.84 997.84 997.48 997.28 997.56 998.24 998.52 999.00 999.16 1002.00 1001.72 1002.00 1003.80 1006.44 1003.00 996.96 994.56 994.36 993.80 994.16 994.56 994.92 994.52 994.44 995.20 995.00 994.52 995.16 995.40 995.72 996.04 996.28 996.40 996.64 996.88 997.40 998.04 998.64 998.92 999.04 999.24 999.40 999.56 999.80 1000.32 1000.76 1001.12 1001.52 1001.88 1002.32 1002.80 1003.32 1003.88 1004.16 1004.76 1005.24 1005.64
1004.84 1004.40 1003.28 1002.16 1000.16 997.88 996.56 996.20 996.72 996.68 997.60 998.36 999.80 1002.28 1001.68 1003.76 1001.44 1000.80 1002.60 1002.96 999.28 996.48 995.12 995.04 994.72 994.60 995.00 994.40 994.12 993.92 993.92 994.48 994.24 994.76 995.40 995.40 995.68 996.28 996.48 996.52 996.96 997.56 997.76 998.00 998.40 998.68 998.80 998.88 999.12 999.48 999.80 1000.16 1000.56 1000.92 1001.16 1001.44 1002.28 1002.80 1003.24 1003.60 1004.12 1004.72 1005.16
1000.68 999.52 998.16 995.52 994.88 996.84 998.08 997.00 996.88 997.04 996.64 996.72 997.76 999.12 1001.40 1003.08 1001.00 1001.52 1000.36 999.76 999.84 998.40 996.76 996.12 995.44 994.76 994.72 994.92 995.00 994.92 994.44 994.12 994.04 994.72 995.00 995.20 995.80 996.28 996.24 996.40 996.56 996.92 997.60 997.92 997.96 998.08 998.24 998.36 998.56 999.00 999.40 999.80 1000.08 1000.44 1000.76 1000.92 1001.28 1002.00 1002.56 1003.08 1003.56 1004.12 1004.60
997.04 996.12 996.04 994.96 994.68 996.40 996.24 996.80 997.12 996.52 996.88 996.80 997.88 999.88 1000.72 998.52 1000.72 1003.04 999.52 998.40 999.56 998.80 997.12 996.68 995.80 994.60 994.52 994.32 994.08 994.36 994.12 994.84 994.48 994.52 994.84 994.84 995.32 995.56 995.72 996.08 996.52 997.16 997.24 997.44 997.72 997.92 998.12 998.28 998.28 998.60 998.80 999.04 999.44 999.84 1000.28 1000.40 1000.76 1001.36 1001.84 1002.44 1003.04 1003.56 1004.00
995.60 995.28 995.32 994.56 994.76 994.56 995.12 995.60 996.12 997.00 996.64 997.04 998.20 998.08 997.44 998.08 1000.56 1002.04 999.32 998.36 999.16 998.04 996.68 995.64 995.00 995.08 995.08 994.48 993.40 992.92 993.44 993.68 994.24 995.08 995.28 995.36 995.60 995.80 996.08 996.24 996.36 996.48 997.00 997.24 997.48 997.76 997.84 997.96 998.32 998.52 998.72 998.88 999.04 999.32 999.48 999.84 1000.20 1000.56 1000.92 1001.80 1002.48 1003.00 1003.48
995.40 995.24 994.96 994.60 995.36 995.24 994.60 994.88 995.12 995.32 996.08 996.60 996.84 997.20 996.76 997.28 998.28 997.60 998.04 997.88 997.80 996.28 995.00 994.56 994.16 993.12 993.40 993.12 992.80 992.80 993.36 994.04 994.24 994.76 995.44 995.76 995.84 995.80 995.92 995.92 995.88 995.96 996.12 996.48 996.88 997.16 997.56 997.76 997.96 998.16 998.40 998.60 998.76 999.04 999.24 999.40 999.76 999.92 1000.52 1001.28 1001.88 1002.44 1002.92
995.44 994.56 994.28 994.20 994.64 995.16 996.12 994.80 994.36 994.52 994.92 995.68 996.00 996.40 996.40 996.44 996.88 996.84 997.00 997.84 997.96 995.52 993.52 993.48 993.12 992.80 992.92 993.00 993.56 993.92 993.52 993.88 994.56 994.84 995.08 995.44 995.68 995.92 995.96 996.00 996.00 996.00 996.00 996.08 996.36 996.76 997.04 997.12 997.24 997.56 997.80 997.92 998.08 998.36 998.64 998.92 999.20 999.28 999.76 1000.60 1001.24 1001.68 1002.12
996.80 994.64 994.88 994.84 994.72 995.04 995.64 995.92 995.72 995.04 995.28 996.64 996.04 996.96 995.84 996.84 998.00 997.04 997.24 998.40 998.08 995.56 993.56 992.88 993.04 993.48 993.88 994.48 993.96 993.64 993.52 993.56 994.44 994.92 995.00 995.00 995.40 995.56 995.52 995.52 995.72 995.92 996.04 996.12 996.32 996.48 996.44 996.36 996.52 996.80 997.20 997.40 997.68 998.00 997.96 998.16 998.24 998.52 999.20 999.84 1000.44 1000.92 1001.24
997.92 995.48 994.48 995.00 995.40 996.48 997.76 996.72 995.12 995.16 994.68 994.12 994.08 994.08 994.00 994.52 994.88 997.20 998.48 997.92 995.48 994.56 993.52 994.28 993.56 993.24 993.84 994.00 994.12 993.72 993.32 993.16 993.68 994.68 994.80 994.56 994.40 994.68 994.76 995.04 995.16 995.16 995.32 995.40 995.52 995.64 995.68 995.80 996.00 995.88 995.96 996.68 997.24 997.12 997.32 997.16 997.48 998.24 998.68 999.08 999.64 1000.24 1000.68
997.64 995.92 995.64 994.88 997.24 1000.72 998.60 993.40 992.72 993.24 994.72 994.80 995.24 995.24 994.64 993.64 993.56 994.80 994.40 994.72 993.48 993.52 993.92 993.80 993.76 993.16 993.20 993.20 992.88 992.60 992.80 993.28 993.28 993.28 993.96 994.28 994.04 993.64 993.72 993.88 994.20 994.36 994.44 994.60 994.64 994.60 994.72 994.76 994.72 994.68 995.00 995.64 995.80 995.76 996.04 996.56 997.36 997.68 998.08 998.56 999.00 999.48 999.96
997.92 996.20 996.24 998.96 1001.76 999.80 993.84 991.56 991.44 991.60 992.20 992.80 994.16 994.16 993.84 993.60 992.88 993.04 994.12 994.40 994.36 993.96 993.44 993.28 992.84 992.44 992.04 991.84 992.12 992.28 992.32 992.56 992.96 993.12 992.96 992.88 993.40 994.00 993.76 993.64 993.64 993.80 993.84 993.88 994.04 994.24 994.24 994.16 994.16 994.44 994.92 994.88 995.04 995.56 995.96 996.60 996.72 997.12 997.44 997.92 998.48 998.88 999.40
996.08 997.60 998.64 1002.40 1000.64 995.60 993.00 992.04 991.44 991.04 991.32 992.00 993.20 994.56 994.12 994.60 994.72 994.04 994.60 994.24 994.00 993.92 994.04 993.72 993.40 993.12 992.28 991.72 991.84 991.72 991.48 991.68 992.28 992.92 993.16 992.68 992.56 993.08 993.28 993.64 993.52 993.32 993.36 993.52 993.68 993.76 993.40 993.64 993.92 994.12 994.48 994.40 994.96 995.44 995.40 995.92 996.32 996.64 997.04 997.60 998.08 998.44 998.92
998.60 998.24 998.96 999.04 995.76 995.80 994.52 994.32 993.40 993.16 994.96 994.12 994.80 998.00 998.44 995.84 994.64 994.56 995.12 994.60 994.12 993.96 994.04 993.68 992.92 992.16 992.28 993.44 993.32 992.28 991.92 991.28 991.16 991.68 991.80 991.88 992.04 991.92 992.04 991.96 992.44 992.68 992.80 992.96 992.76 992.60 992.84 993.12 993.52 993.80 993.72 994.08 994.56 995.04 995.52 995.68 996.00 996.40 996.80 997.32 997.72 998.04 998.44
995.92 998.48 999.60 999.28 999.20 1000.76 997.28 994.20 992.68 991.44 991.84 992.08 992.44 994.52 998.96 996.12 995.20 994.28 994.80 995.32 994.72 994.44 994.16 993.84 993.32 992.56 994.00 995.56 994.88 993.20 992.48 992.12 992.00 991.16 990.84 990.80 990.88 991.12 991.32 991.68 991.92 992.04 992.16 992.12 992.00 992.20 992.60 992.84 992.76 992.76 993.04 993.60 994.20 994.80 995.16 995.36 995.84 996.28 996.60 996.96 997.16 997.56 998.04
996.88 998.08 999.88 999.92 1000.76 999.12 996.20 994.64 992.76 992.00 991.36 992.04 992.24 995.12 1000.60 997.08 995.76 994.76 994.76 995.56 995.32 994.92 994.72 994.36 993.64 994.96 997.24 997.64 996.16 994.04 992.92 992.28 991.60 991.96 991.48 990.76 990.68 990.64 990.72 991.00 991.60 991.84 991.84 991.88 991.92 992.08 992.20 992.68 992.44 992.44 992.80 993.24 993.88 994.48 994.68 994.96 995.36 995.96 996.32 996.64 996.88 997.20 997.52
996.80 997.60 999.04 999.96 997.52 998.72 995.60 993.60 992.92 992.16 991.84 991.56 993.96 1000.08 1002.00 997.24 995.84 995.36 995.44 996.24 996.24 995.96 995.28 994.68 995.64 997.36 999.16 998.40 996.36 994.04 993.48 993.12 992.84 992.44 992.52 992.12 991.44 991.20 990.88 990.64 990.44 990.60 990.92 991.20 991.64 992.00 992.36 992.16 991.76 992.12 992.48 993.00 993.56 994.04 994.36 994.56 995.20 995.60 995.84 996.08 996.20 996.64 997.20
997.08 997.64 998.00 997.12 996.68 994.80 993.48 993.24 992.40 992.28 991.80 993.44 998.48 1001.56 999.96 996.60 996.40 995.88 995.88 996.16 996.20 996.24 996.44 996.20 997.48 996.80 996.28 995.80 994.76 993.92 993.72 994.20 994.12 993.44 993.00 992.40 991.60 991.52 990.96 990.48 989.88 990.16 990.52 990.92 991.16 991.36 991.44 991.44 991.44 991.52 992.00 992.80 993.44 993.76 994.04 994.56 995.04 995.04 995.28 995.72 996.16 996.72 997.28
997.64 997.60 998.72 998.68 997.60 994.96 993.24 992.40 992.28 991.92 994.32 998.96 1000.88 998.32 995.80 996.16 996.40 996.24 996.12 996.48 996.20 996.04 996.40 996.64 996.84 996.36 995.60 995.36 994.96 994.84 994.88 995.28 995.08 994.56 994.12 993.72 992.60 991.32 991.04 990.92 990.88 990.56 989.80 990.28 990.64 990.72 990.60 990.76 990.92 991.24 991.68 992.56 993.08 993.52 994.04 994.44 994.48 994.60 995.12 995.56 996.04 996.68 997.32
996.16 996.84 998.84 999.56 1001.28 995.92 993.00 993.48 993.40 993.12 996.52 998.08 996.24 995.84 996.04 995.76 996.36 996.68 996.84 996.76 996.76 996.36 996.96 996.64 997.00 997.16 996.96 996.76 996.56 996.16 995.72 995.44 995.44 995.12 994.80 994.60 994.16 992.88 991.80 991.56 991.48 991.96 992.68 992.20 991.44 990.84 990.48 990.60 990.96 991.24 991.64 992.52 993.08 993.56 994.04 994.04 994.08 994.52 995.00 995.44 996.04 996.72 997.40
998.52 998.28 999.60 999.56 996.36 994.48 992.72 993.36 996.80 996.52 995.32 994.92 994.88 995.44 996.76 996.20 996.24 996.80 997.12 997.24 997.00 996.72 997.04 997.40 997.24 997.20 997.36 997.36 997.16 996.88 996.56 996.12 995.64 995.20 994.92 994.68 994.32 993.68 992.88 992.04 991.60 991.72 992.64 993.32 993.20 993.08 992.88 992.56 991.88 991.28 991.88 992.92 993.24 993.56 993.84 993.64 993.92 994.52 995.08 995.64 996.16 996.88 997.56
999.76 999.24 997.48 994.80 993.08 993.44 993.20 993.72 994.88 994.56 994.40 994.20 994.44 995.16 996.00 996.68 996.96 996.52 997.24 997.64 997.24 996.96 997.00 997.24 997.48 997.72 997.72 997.72 997.36 997.32 997.12 996.68 996.40 996.08 995.72 995.52 995.36 994.80 994.08 993.80 992.80 991.96 992.48 992.96 993.12 993.16 993.16 993.56 994.40 994.28 993.08 992.76 993.16 993.48 993.48 993.28 993.92 994.56 995.28 995.80 996.40 997.12 997.68
998.52 997.04 996.36 994.88 993.64 993.48 993.76 993.36 993.72 994.60 994.92 994.64 994.68 995.56 996.80 997.20 997.28 997.08 997.56 997.68 997.64 997.60 997.44 997.92 998.32 998.40 998.24 997.96 997.72 997.44 997.16 997.00 996.68 996.24 995.96 995.76 995.56 995.20 995.08 994.40 993.76 993.28 992.52 992.44 992.84 993.40 993.44 993.32 994.36 995.28 995.24 994.32 994.04 993.88 993.24 993.32 993.68 994.44 995.32 996.08 996.76 997.32 997.80
999.52 999.72 997.12 996.92 995.36 994.48 994.20 994.40 994.40 994.52 994.76 995.48 995.72 996.44 996.84 997.24 997.20 997.24 997.28 997.40 997.68 997.76 997.68 998.12 998.56 998.60 998.24 998.12 997.92 997.72 997.56 997.40 997.24 997.04 996.92 996.68 996.36 996.16 996.00 995.68 994.68 994.00 994.00 994.04 994.16 993.80 993.92 994.16 993.96 994.16 994.56 995.08 994.52 993.68 993.44 993.20 993.56 994.32 995.32 996.08 996.84 997.48 998.00
1000.80 1000.16 999.68 998.88 995.72 994.68 994.60 994.76 995.20 995.56 995.64 995.84 996.08 996.40 996.68 996.96 997.08 997.24 997.56 997.36 997.72 997.56 997.96 998.16 998.24 998.28 998.00 998.04 998.12 998.00 997.92 997.84 997.72 997.64 997.56 997.36 997.00 996.60 996.40 996.24 995.84 995.08 994.84 994.52 994.44 994.48 994.48 994.40 994.12 994.08 994.40 994.68 995.28 994.72 994.04 993.56 993.68 994.56 995.68 996.24 996.96 997.64 998.20
1000.48 1000.36 1000.64 1000.40 997.72 995.80 995.76 995.68 995.76 995.88 995.80 996.04 996.48 996.60 997.04 997.20 997.64 997.96 997.92 997.96 998.28 998.16 998.56 998.32 998.32 998.44 998.72 998.56 998.48 998.44 998.32 998.16 998.04 998.00 997.72 997.40 997.24 997.04 996.68 996.56 996.68 996.44 995.80 995.52 995.20 995.08 995.16 994.88 994.64 994.56 994.76 995.16 995.48 995.56 995.48 995.24 995.04 995.12 995.92 996.64 997.24 998.04 998.60
1001.96 1002.36 1001.84 1001.08 1000.64 999.64 998.04 997.08 996.76 996.72 996.48 996.60 997.20 997.36 997.68 997.92 998.24 998.40 998.56 998.76 998.64 998.72 998.88 998.88 998.80 999.16 999.36 999.20 999.00 999.00 998.76 998.60 998.48 998.20 998.00 997.64 997.28 997.04 996.72 996.48 996.68 996.72 996.24 996.08 996.24 996.28 996.20 995.84 995.72 995.80 995.48 995.68 996.24 996.16 995.96 995.64 995.56 996.36 996.60 997.16 997.96 998.76 999.28
1002.36 1001.60 1001.28 1001.12 1000.60 1000.00 999.40 998.40 997.48 997.04 997.08 997.20 997.68 998.12 998.32 998.44 998.44 998.56 998.76 999.12 999.24 999.32 999.36 999.16 999.16 999.44 999.48 999.68 999.40 999.24 999.24 999.04 998.64 998.48 998.28 998.04 997.64 997.32 997.12 997.12 997.12 997.20 996.80 996.48 996.56 996.92 997.00 996.88 996.88 996.96 996.72 996.52 996.68 996.60 996.68 996.28 996.44 996.72 996.92 997.84 998.68 999.36 999.80
1001.00 1001.36 1001.36 1000.92 1000.52 1000.28 999.80 999.32 999.12 998.68 998.00 997.68 997.92 998.16 998.36 998.68 998.92 998.96 999.00 999.20 999.56 999.84 999.72 999.60 999.48 999.64 999.76 999.80 999.64 999.84 999.76 999.52 999.20 998.80 998.52 998.40 998.08 997.20 997.00 997.76 998.08 998.36 998.28 997.24 997.00 997.60 997.56 997.56 997.84 997.44 996.80 996.24 996.24 996.80 997.00 996.80 996.96 997.28 997.72 998.32 999.12 999.68 1000.32
1001.44 1001.08 1001.00 1000.76 1000.24 999.64 999.16 999.36 999.60 999.24 998.92 998.72 998.96 999.04 999.00 999.20 999.28 999.24 999.40 999.60 999.60 999.68 999.88 1000.00 999.88 999.84 1000.00 1000.12 1000.04 1000.04 1000.16 1000.12 999.84 999.52 999.28 999.04 998.68 997.96 997.56 998.16 998.76 998.88 998.44 997.44 996.96 997.08 997.68 998.12 998.12 997.52 996.48 996.28 996.08 996.44 996.72 997.16 997.56 998.04 998.36 998.64 999.28 1000.04 1000.52
Wind_Speed
15 7 13 13 10 9 6 7 13 13 6 7 1 5 4 4 4 6 1 4 3 1 4 13 15 16 16 13 10 11 13 17 19 16 16 15 15 14 14 15 14 16 16 17 17 18 17 18 18 19 19 18 19 18 18 19 18 17 18 18 17 16 15
19 14 10 15 17 12 3 14 14 5 4 1 3 4 3 7 5 3 5 5 3 8 6 8 16 18 16 12 14 13 13 16 19 17 15 15 16 16 15 15 15 17 18 19 17 17 19 20 21 20 20 18 17 17 19 19 18 19 19 18 17 16 16
15 17 12 11 13 17 13 3 5 9 6 12 3 1 6 6 6 3 4 4 5 7 4 7 12 16 14 14 13 15 15 18 20 18 19 18 18 16 15 15 14 14 15 17 18 18 18 19 19 19 18 17 16 16 18 20 21 21 20 17 15 14 15
12 14 11 12 9 7 10 8 9 4 4 5 8 6 2 2 3 5 7 5 4 3 4 14 13 11 14 16 15 16 17 19 18 18 18 17 16 14 15 16 16 17 18 20 20 18 18 18 17 16 17 16 19 18 18 18 19 18 17 17 16 16 16
12 12 10 10 8 10 9 10 11 7 4 2 8 5 8 4 2 4 2 5 6 7 4 12 11 16 16 17 17 15 15 18 20 18 18 17 18 17 18 18 17 18 18 18 19 18 17 16 15 16 17 19 18 16 18 19 20 20 19 18 17 16 15
10 9 10 15 14 12 13 13 16 12 9 7 7 7 5 10 7 3 5 7 1 5 7 5 11 13 16 15 15 15 15 17 16 21 23 19 18 19 19 17 16 16 16 17 17 16 15 16 17 19 19 17 18 19 18 18 18 18 19 18 17 16 15
6 7 13 19 19 15 12 14 14 14 7 4 4 5 6 9 10 9 4 1 7 6 4 6 6 14 12 10 13 14 14 15 11 16 20 21 22 20 18 17 16 16 15 15 15 16 18 21 21 21 18 18 18 18 18 17 19 19 19 18 16 16 15
10 12 8 19 20 18 14 13 14 11 13 12 9 5 3 2 1 5 3 7 3 2 6 4 5 11 15 14 16 14 13 12 12 14 21 21 18 17 18 17 15 14 13 13 13 15 16 15 16 19 20 19 18 17 18 18 19 19 18 17 16 16 16
7 9 6 6 18 15 11 7 12 14 11 11 11 6 3 8 8 7 6 8 4 4 11 2 4 4 9 7 9 10 12 9 13 10 16 15 16 16 15 14 14 11 12 14 15 17 17 17 17 19 18 18 18 18 18 18 17 18 17 16 16 17 17
12 10 11 7 9 15 8 8 11 16 17 14 10 12 5 7 7 11 4 3 4 5 13 16 8 1 3 13 16 14 13 12 16 7 16 18 18 14 13 14 12 14 16 16 15 16 17 17 17 17 17 18 17 18 19 17 16 17 18 16 17 17 17
9 9 4 3 6 10 13 14 13 10 15 15 12 6 6 8 4 9 7 4 2 8 18 16 7 4 4 3 2 5 9 10 9 7 17 17 14 13 15 16 15 13 13 17 18 18 17 17 16 15 17 17 17 17 18 18 17 17 17 17 17 17 18
11 5 8 12 7 12 13 14 17 16 11 12 15 11 14 5 3 5 3 7 11 10 7 4 6 8 6 5 6 6 4 1 5 13 16 19 17 16 15 15 15 13 15 15 15 15 15 15 15 15 16 18 18 18 19 18 17 16 15 17 17 18 18
19 17 15 11 9 8 10 12 13 18 19 14 12 11 12 6 6 11 6 3 6 9 10 6 4 3 4 5 11 11 9 9 6 6 10 16 16 15 15 14 13 14 13 13 14 13 14 15 15 16 15 16 16 16 17 17 17 18 17 17 18 17 17
16 18 20 19 17 10 11 15 14 15 19 21 19 12 8 10 7 7 8 7 7 6 7 6 5 3 3 3 2 3 6 11 12 11 9 11 13 16 17 16 16 15 16 15 14 13 13 15 17 16 16 16 17 17 17 17 18 17 16 17 18 17 18
14 15 16 17 16 16 10 6 13 15 16 18 18 17 13 8 10 11 8 8 10 6 5 7 3 4 4 1 0 1 3 8 12 14 15 11 12 8 6 6 9 9 12 13 13 14 15 17 18 17 16 17 17 18 17 18 18 17 17 17 18 18 18
5 14 19 17 18 16 15 15 12 12 13 14 16 14 11 11 6 5 11 10 8 6 5 7 5 5 3 5 5 6 2 2 8 11 12 14 12 10 11 12 12 12 12 11 12 13 15 17 18 17 17 17 17 18 18 19 19 17 17 18 19 19 17
2 2 8 19 18 15 15 18 16 11 5 4 6 13 15 13 12 7 5 7 6 8 6 5 7 5 4 4 7 5 5 4 4 8 12 16 16 15 14 14 15 17 17 16 16 16 16 16 17 19 19 17 17 18 19 19 16 17 18 18 18 18 17
1 4 8 3 11 16 15 4 6 6 10 7 9 8 7 12 12 5 6 8 3 3 6 11 9 11 9 7 6 7 8 7 6 7 7 6 10 17 19 18 18 16 14 13 14 17 16 17 19 20 18 19 20 20 20 17 16 18 18 17 17 18 17
2 1 3 5 8 7 3 4 2 5 8 9 8 6 6 3 9 7 2 3 1 1 3 4 7 7 6 4 5 4 7 6 8 7 7 9 10 10 10 13 15 15 16 16 14 13 14 16 16 15 15 17 17 15 14 15 17 18 18 17 16 17 17
2 0 3 6 5 1 5 1 1 3 3 4 2 7 3 7 8 4 6 6 6 8 8 9 6 2 3 3 4 5 5 8 7 5 5 6 5 9 10 9 9 13 16 16 15 14 13 13 12 13 15 15 14 15 15 17 16 16 16 16 15 15 16
4 3 4 5 3 3 2 3 1 1 1 2 5 3 7 7 4 4 4 5 8 10 8 6 5 5 8 7 9 3 3 4 3 5 4 4 5 5 7 14 16 15 14 13 14 14 14 14 14 14 14 14 14 13 14 15 15 15 15 15 15 15 16
5 3 4 5 3 5 3 1 1 2 4 7 5 7 1 6 8 5 6 7 7 7 6 7 5 5 3 4 5 10 13 4 3 6 6 5 6 5 5 6 8 11 12 13 15 15 15 14 16 15 15 15 14 14 15 15 15 14 15 15 14 15 15
11 9 6 6 6 3 0 2 2 5 5 5 4 6 3 6 5 6 5 9 7 6 6 5 6 8 5 3 5 10 11 14 15 13 11 9 6 6 6 7 8 13 14 15 15 13 14 15 15 13 14 16 15 16 16 16 15 15 14 12 13 15 15
3 6 9 5 2 1 5 1 6 6 4 0 6 3 1 4 6 9 9 12 10 8 7 6 11 10 6 7 8 9 12 12 14 11 12 10 10 7 6 6 10 9 14 16 15 15 15 17 16 15 15 15 16 16 15 15 15 15 14 13 12 12 13
5 4 1 3 1 1 4 2 5 5 6 7 6 5 3 2 7 8 9 10 9 7 9 9 8 4 4 5 8 12 13 15 15 12 12 11 6 5 6 8 8 6 8 14 16 16 15 16 16 16 16 16 16 15 14 14 15 14 10 11 12 13 13
5 4 2 1 1 2 1 4 3 2 2 1 4 2 3 4 7 9 10 9 9 7 6 5 5 5 10 12 13 14 14 11 10 13 15 16 13 7 10 13 13 12 13 7 11 14 16 18 18 16 16 16 15 14 13 14 13 9 12 13 14 14 15
1 3 2 2 3 3 1 4 2 2 3 3 4 6 7 6 8 8 9 8 7 8 8 8 8 9 10 10 10 10 12 13 11 11 12 13 14 9 11 12 15 17 15 10 3 8 12 12 9 8 12 13 12 11 13 12 10 12 13 14 15 15 14
0 3 3 3 3 3 3 4 3 1 4 5 4 6 7 6 6 6 7 10 9 8 9 9 9 8 6 6 7 6 9 10 12 12 12 12 13 13 10 8 10 12 10 11 14 18 18 13 2 9 13 12 12 12 12 9 12 13 14 14 15 15 14
1 4 4 3 5 4 6 11 7 7 6 7 9 10 9 7 8 7 10 10 11 11 9 11 11 10 10 9 10 9 9 10 11 12 13 12 13 11 9 10 7 10 12 12 12 13 13 15 17 15 4 11 12 13 10 13 15 15 14 15 15 14 14
8 9 7 12 6 13 13 9 10 11 10 10 10 13 13 10 9 9 10 10 11 11 11 11 10 9 8 9 10 10 10 10 11 11 13 14 14 15 14 11 10 7 9 12 12 9 8 9 7 8 13 7 7 8 11 14 15 15 15 15 14 14 13
6 3 14 13 1 10 15 16 14 13 12 13 14 13 12 11 11 13 12 12 12 12 13 13 10 11 10 9 9 8 9 11 12 12 13 13 13 14 15 14 6 8 9 10 8 8 10 4 6 8 9 3 3 9 11 15 16 17 16 15 14 13 13
3 1 7 14 5 10 11 10 10 13 15 17 15 13 12 13 13 13 12 13 14 13 15 12 13 15 15 15 13 10 10 9 10 11 12 13 13 14 13 13 10 8 8 7 6 6 7 4 4 7 7 9 9 5 8 13 16 17 14 14 14 14 14
4 11 14 17 8 16 14 15 13 11 12 13 14 14 14 15 16 15 15 15 13 14 13 13 14 18 17 15 13 12 11 10 9 10 8 10 10 10 11 11 12 9 6 7 6 7 7 6 6 7 10 9 5 5 5 4 10 14 15 15 14 14 13
5 2 8 13 6 5 7 12 13 12 13 15 15 13 14 13 13 13 16 15 15 15 14 13 13 15 14 15 14 14 12 11 11 10 9 8 8 8 8 7 7 8 8 9 10 10 10 10 9 9 8 8 3 5 7 8 10 14 14 14 14 13 12
4 4 7 10 6 6 10 9 8 11 11 13 15 14 14 13 12 11 13 14 14 14 13 12 14 14 13 13 13 16 16 14 9 9 9 7 6 7 9 10 11 11 9 10 12 12 10 10 7 5 5 8 5 7 7 8 11 12 14 13 11 11 11
2 3 6 7 4 8 8 10 11 11 9 12 15 13 12 11 11 11 12 11 12 10 9 11 12 13 13 13 14 16 16 17 16 13 11 9 8 10 11 10 7 5 7 7 11 8 6 6 7 9 5 9 12 10 8 8 9 11 12 12 11 10 10
2 3 3 3 3 6 8 9 9 9 10 11 12 12 11 11 10 10 11 10 9 10 10 10 10 10 12 11 12 13 14 14 13 13 15 14 11 9 11 9 7 6 3 6 11 10 6 3 5 4 7 10 10 11 10 9 8 9 9 10 11 12 11
Wind_Direction
235 208 170 199 207 221 189 199 220 222 195 217 197 276 260 315 270 246 232 238 246 113 186 179 181 186 199 191 190 174 171 171 173 182 185 185 186 181 180 182 180 181 181 183 180 179 179 180 181 182 181 179 178 177 180 183 185 186 189 191 191 190 189
218 226 189 198 201 219 156 204 214 211 225 254 168 191 215 239 218 258 230 233 266 179 256 198 178 186 194 194 186 170 165 162 172 178 182 183 184 183 179 180 181 179 182 184 183 178 179 181 183 184 182 179 177 177 179 181 183 188 192 192 192 190 189
199 213 218 216 218 203 226 226 127 205 171 232 215 212 211 223 239 252 236 241 234 185 238 183 182 181 188 189 184 179 167 167 174 177 182 182 181 181 183 185 185 181 182 184 184 184 182 181 182 182 180 176 176 177 180 182 186 190 190 191 190 191 190
179 195 199 218 198 198 225 257 272 233 227 191 219 205 252 146 250 221 249 261 249 229 199 189 179 178 176 186 187 183 173 172 172 175 182 182 182 183 187 189 190 188 186 185 184 182 179 180 179 179 177 180 182 180 178 184 188 188 188 189 189 191 192
181 203 187 199 171 180 189 218 243 235 249 145 192 173 210 173 195 194 189 237 243 256 200 178 196 183 189 183 186 185 175 174 175 176 183 183 186 188 190 191 190 189 188 184 183 182 177 171 173 177 182 185 183 181 183 184 185 187 189 190 189 192 191
219 205 175 182 183 185 190 197 222 226 209 239 200 239 188 209 214 205 184 236 266 251 223 208 192 208 194 188 177 183 175 176 182 182 183 184 188 193 192 191 187 189 187 186 183 177 170 168 175 181 184 181 184 188 185 185 188 189 189 190 190 190 193
248 224 182 183 183 191 193 187 218 225 223 215 216 208 236 195 220 227 198 198 256 247 239 229 201 193 196 181 169 176 180 183 176 180 186 186 189 190 189 185 188 187 182 181 180 178 176 177 179 180 178 184 187 187 185 189 190 191 190 190 189 191 193
273 268 223 182 183 186 199 195 200 214 217 219 225 220 188 186 183 213 195 228 218 268 288 287 200 189 183 176 170 167 180 189 195 175 181 185 190 189 184 186 187 183 179 174 176 183 185 179 175 178 184 185 183 186 189 190 194 191 190 189 190 192 195
277 283 309 213 181 186 197 193 188 211 227 223 233 257 189 220 212 213 160 230 230 231 280 327 4 135 143 161 163 165 183 184 204 171 180 177 185 188 185 180 178 172 170 178 183 185 186 183 181 181 180 181 184 187 188 192 193 189 191 190 190 193 195
209 220 214 207 193 192 181 197 193 193 217 219 213 230 214 211 225 220 191 225 238 186 230 255 247 359 173 173 178 182 163 190 201 157 173 180 187 180 174 171 167 171 180 183 184 186 186 185 181 180 180 181 183 186 191 191 189 190 191 191 192 192 195
207 229 229 232 174 179 196 187 199 208 204 220 218 215 220 206 221 209 224 188 219 202 196 231 194 172 150 142 140 191 188 181 194 147 172 177 173 171 171 175 178 172 173 180 184 186 186 185 182 179 179 180 183 186 190 191 191 188 189 191 193 193 194
211 212 236 239 226 184 186 181 191 209 230 210 217 210 229 193 136 274 266 216 219 244 276 246 222 186 182 192 169 139 145 105 195 161 170 177 176 176 175 179 174 168 172 179 182 185 186 185 182 179 181 183 183 185 189 191 188 187 189 191 192 193 194
214 219 243 255 248 217 187 192 190 196 212 238 227 223 229 199 197 221 236 194 196 234 234 211 195 232 211 202 194 174 156 147 140 133 160 174 175 172 174 175 175 173 174 182 185 183 183 182 181 182 183 185 186 187 189 188 188 190 187 188 192 193 194
206 218 230 240 252 255 211 199 204 197 196 213 235 245 233 217 219 224 211 205 221 226 247 208 204 198 176 173 216 178 136 139 153 147 156 168 174 176 177 180 180 182 182 183 188 184 179 179 183 183 184 185 187 188 190 189 190 190 184 189 191 193 196
204 211 226 238 245 248 257 228 210 209 199 199 211 233 246 243 234 227 214 214 226 241 218 262 166 172 114 66 85 297 198 131 149 150 159 161 165 161 166 186 188 189 188 192 188 185 184 183 183 183 185 187 188 190 189 189 191 189 187 189 191 194 198
231 205 205 224 244 254 257 256 254 231 213 204 195 211 221 234 226 213 222 221 236 258 241 232 241 139 136 155 182 172 238 232 141 158 155 147 151 165 170 176 186 190 194 194 193 193 191 188 185 183 186 187 187 191 191 192 193 188 188 190 192 196 195
215 303 227 203 212 242 251 246 240 243 272 237 195 200 197 216 231 219 188 233 212 201 200 201 245 258 165 194 189 200 193 189 170 172 173 162 164 176 179 184 186 188 189 188 188 192 192 189 186 189 187 185 189 193 193 196 188 186 191 192 192 193 190
120 229 274 256 191 212 233 224 228 236 236 245 227 209 203 214 202 211 191 192 177 167 200 197 198 221 235 199 212 183 181 197 205 183 185 199 191 178 181 186 191 193 191 191 191 189 190 190 190 192 187 185 192 193 194 189 184 190 192 192 190 191 188
199 171 276 304 250 254 205 133 203 210 247 259 266 280 297 282 216 203 23 7 15 286 236 223 214 204 228 197 158 163 164 173 171 179 177 171 163 205 207 192 191 192 193 197 197 195 191 191 194 190 189 193 193 192 187 186 190 191 193 191 189 188 188
101 110 179 223 234 288 338 55 245 335 287 250 286 283 303 15 19 105 112 128 107 88 68 46 15 329 240 205 203 209 200 159 171 192 204 212 189 165 186 215 215 198 195 194 195 196 195 193 193 187 191 193 187 188 187 188 190 192 191 190 188 185 186
170 172 230 240 4 326 170 280 340 84 324 262 181 118 29 349 22 80 100 68 74 65 47 35 14 41 52 29 336 318 212 224 194 174 199 200 201 204 194 182 193 200 203 204 201 194 192 192 188 192 193 187 187 185 186 190 188 189 188 190 187 184 183
169 165 228 266 260 240 213 202 31 91 74 77 81 103 62 347 358 18 73 55 50 66 43 30 14 35 56 8 321 344 355 5 317 284 247 247 256 222 201 183 196 202 200 203 201 195 194 194 194 192 187 183 184 183 188 190 188 187 187 189 184 177 176
172 195 213 212 222 219 236 337 345 73 57 93 88 71 37 302 334 355 54 65 48 43 53 21 40 54 54 347 326 333 346 349 347 349 317 276 248 251 233 222 191 191 201 199 204 206 196 195 196 191 185 183 182 188 189 189 188 187 188 180 174 172 168
153 180 203 216 168 212 255 73 54 49 33 17 65 120 195 280 352 4 41 54 47 36 26 37 56 49 37 347 332 341 352 355 2 1 359 346 337 330 305 279 256 209 193 200 201 198 198 197 190 186 187 186 187 187 190 187 187 188 184 175 165 154 147
140 150 210 187 255 98 200 141 87 63 28 61 113 186 182 287 47 28 43 46 45 46 48 34 55 7 25 344 350 356 4 17 3 355 341 314 302 308 314 309 301 263 205 194 197 195 195 196 192 187 185 185 186 189 184 183 189 187 164 146 144 142 142
155 133 129 187 55 289 320 102 155 119 62 105 146 182 205 73 54 43 38 36 25 38 59 72 61 17 9 8 6 4 12 16 9 3 359 351 336 356 13 10 349 309 270 200 191 195 194 194 192 190 183 181 183 180 177 185 184 151 142 144 141 141 143
87 107 124 130 230 273 7 13 357 49 134 202 156 117 70 74 74 61 48 36 30 27 39 41 50 43 33 20 8 8 6 5 5 5 7 355 339 347 48 38 34 36 8 353 281 212 199 192 193 184 172 169 168 169 180 175 146 142 142 141 140 138 137
165 129 192 183 192 199 201 162 142 264 115 182 116 106 92 70 72 79 67 51 38 42 57 48 41 38 37 32 19 20 18 7 1 2 6 359 348 349 1 59 77 65 51 40 37 26 14 355 318 162 161 167 170 172 168 140 134 135 137 135 134 133 134
4 339 324 278 171 60 58 100 125 105 88 92 88 82 78 74 64 66 69 55 49 40 47 50 35 26 15 12 14 24 18 15 10 1 3 3 351 342 355 354 9 77 83 68 50 37 37 27 7 332 280 172 164 154 143 136 135 136 135 134 131 132 130
332 281 288 321 83 118 122 104 91 89 79 70 76 81 80 68 66 62 70 67 58 53 50 55 41 35 12 19 14 15 15 19 16 10 14 11 3 1 352 0 7 34 79 85 81 74 62 82 84 38 356 346 124 136 136 132 132 130 131 129 128 127 127
9 331 325 307 81 67 80 91 90 85 82 78 81 79 81 82 73 69 61 64 60 58 57 56 57 42 31 34 27 22 17 19 18 18 22 17 13 10 3 343 354 42 43 53 49 86 94 67 101 108 123 227 204 144 136 133 130 129 128 127 124 124 124
8 177 320 323 44 80 75 75 87 94 92 88 83 86 85 80 73 68 62 59 55 51 51 45 48 45 36 34 25 21 19 16 22 27 26 21 16 17 13 358 352 43 52 74 85 85 81 60 72 100 89 59 354 25 111 129 131 124 125 126 125 124 121
316 329 300 303 315 73 77 76 72 68 78 88 87 86 83 79 76 72 64 56 56 51 51 44 46 49 37 31 28 30 24 23 25 23 23 29 23 16 21 16 3 7 24 31 42 59 44 28 43 76 85 76 82 84 63 65 112 115 117 114 113 114 114
303 215 278 317 333 55 56 73 78 78 76 79 78 75 73 74 76 75 74 68 61 61 50 45 50 56 47 36 31 30 24 26 21 17 14 11 13 19 17 12 360 352 15 31 33 32 27 20 20 8 51 61 6 57 91 100 96 105 108 108 109 111 113
210 323 314 298 300 53 15 29 53 78 83 85 83 77 77 72 72 71 75 73 64 60 55 53 55 52 48 40 35 38 29 18 15 18 10 11 18 25 15 7 2 355 6 43 45 26 11 348 6 330 10 70 54 64 71 91 104 107 107 107 108 113 115
146 309 296 298 346 54 43 30 31 37 41 72 79 79 77 77 73 72 73 71 78 71 61 56 56 59 55 46 44 46 35 24 19 19 16 9 20 45 35 7 9 8 347 36 70 57 0 6 305 273 164 128 119 118 112 100 101 106 111 117 119 113 106
178 201 266 288 356 64 72 63 40 43 46 58 69 67 70 72 66 61 66 68 66 73 69 60 48 51 60 55 51 54 50 36 25 24 25 18 6 18 59 51 7 341 340 62 84 81 51 319 259 270 89 91 93 101 105 103 106 110 114 114 113 112 116